This is the latest recevied weather packets stored in our database for station/object K7TSD. If no packets are shown the sender has not sent any weather packets the latest 10 day(s).
| Time | Temp. | Humidity | Pressure | Rain* | Wind** | Luminosity | Snow |
|---|---|---|---|---|---|---|---|
| 1777657903 | 13.89° C | 39% | 1017.5 hPa | 0 mm | - | 789 W/m² | - |
| 1777657600 | 13.89° C | 42% | 1017.5 hPa | 0 mm | - | 816 W/m² | - |
| 1777657298 | 13.89° C | 40% | 1017.6 hPa | 0 mm | - | 815 W/m² | - |
| 1777656995 | 13.89° C | 41% | 1017.4 hPa | 0 mm | - | 815 W/m² | - |
| 1777656692 | 13.33° C | 41% | 1017.5 hPa | 0 mm | - | 831 W/m² | - |
| 1777656387 | 13.33° C | 39% | 1017.5 hPa | 0 mm | - | 811 W/m² | - |
| 1777656082 | 13.89° C | 40% | 1017.5 hPa | 0 mm | - | 813 W/m² | - |
| 1777655779 | 13.33° C | 41% | 1017.8 hPa | 0 mm | - | 802 W/m² | - |
| 1777655475 | 13.33° C | 40% | 1017.4 hPa | 0 mm | - | 792 W/m² | - |
| 1777655172 | 13.89° C | 44% | 1017.4 hPa | 0 mm | - | 246 W/m² | - |
| 1777654869 | 13.33° C | 42% | 1017.4 hPa | 0 mm | - | 760 W/m² | - |
| 1777654567 | 13.33° C | 43% | 1017.6 hPa | 0 mm | - | 772 W/m² | - |
| 1777654264 | 12.78° C | 43% | 1017.5 hPa | 0 mm | - | 755 W/m² | - |
| 1777653962 | 12.78° C | 40% | 1017.6 hPa | 0 mm | - | 746 W/m² | - |
| 1777653658 | 13.89° C | 41% | 1017.5 hPa | 0 mm | - | 701 W/m² | - |
| 1777653355 | 13.33° C | 43% | 1017.3 hPa | 0 mm | - | 729 W/m² | - |
| 1777653052 | 12.78° C | 42% | 1017.4 hPa | 0 mm | - | 640 W/m² | - |
| 1777652748 | 12.78° C | 41% | 1017.6 hPa | 0 mm | - | 679 W/m² | - |
| 1777652445 | 12.78° C | 41% | 1017.3 hPa | 0 mm | - | 684 W/m² | - |
| 1777652143 | 12.78° C | 41% | 1017.5 hPa | 0 mm | - | 657 W/m² | - |
| 1777651838 | 12.78° C | 41% | 1017.5 hPa | 0 mm | - | 626 W/m² | - |
| 1777651536 | 12.78° C | 44% | 1017.4 hPa | 0 mm | - | 599 W/m² | - |
| 1777651233 | 12.78° C | 41% | 1017.2 hPa | 0 mm | - | 590 W/m² | - |
| 1777650929 | 12.78° C | 42% | 1016.9 hPa | 0 mm | - | 561 W/m² | - |
| 1777650626 | 12.78° C | 42% | 1017.3 hPa | 0 mm | - | 540 W/m² | - |
* Rain latest hour (hover to see other rain measurements)
** Current wind speed in m/s (hover to see current wind gust speed)